Flag for U.S.A. Weather past 2 weeks in Fort Myers, Florida, U.S.A.

Now
66 °F

Partly sunny.


Feels Like: 66 °F
Forecast: 60 / 80 °F
Wind: 10 mph from North

Location: Page Field


UV Index: 7 (High)

Visibility: 10 mi


Pressure: 30.07 "Hg

Humidity: 73%

Dew point: 57 °F

Location of Fort MyersLocation

Historic Weather in Fort Myers

°F

Fort Myers temperature yesterday

Maximum temperature yesterday: 79 °F (at 4:53 PM)
Minimum temperature yesterday: 64 °F (at 3:53 AM)
Average temperature yesterday: 70 °F

Past Weeks' High & Low Weather Summary

 TemperatureHumidityPressure
High89 °F (Apr 7, 1:53 PM)100% (Apr 14, 6:53 AM)30.27 "Hg (Apr 14, 6:53 AM)
Low58 °F (Apr 10, 5:53 AM)31% (Apr 10, 1:53 PM)29.78 "Hg (Apr 8, 1:53 PM)
Average74 °F72%30.02 "Hg
* Reported Apr 6 8:53 AM — Apr 21 8:53 AM, Fort Myers, Weather by CustomWeather, © 2014

Note: Actual official high and low records may vary slightly from our data, if they occured in-between our weather recording intervals... More about our weather records

Advertising

Historic Weather Conditions — Data for Previous 24 hours

 ConditionsComfort  
Time TempWeatherWind HumidityBarometerVisibility
8:53 AM
Apr 21
66 °FPartly sunny.10 mph73%30.07 "Hg10 mi
7:53 AM63 °FClear.8 mph87%30.06 "Hg8 mi
6:53 AM60 °FClear.No wind93%30.05 "Hg9 mi
5:53 AM60 °FClear.3 mph93%30.04 "Hg10 mi
4:53 AM60 °FClear.No wind93%30.03 "Hg10 mi
3:53 AM61 °FClear.5 mph90%30.03 "Hg10 mi
2:53 AM62 °FPassing clouds.6 mph86%30.04 "Hg10 mi
1:53 AM64 °FClear.7 mph81%30.05 "Hg10 mi
12:53 AM66 °FOvercast.10 mph75%30.06 "Hg10 mi
11:53 PM
Apr 20
67 °FClear.8 mph76%30.06 "Hg10 mi
10:53 PM70 °FOvercast.5 mph66%30.05 "Hg10 mi
9:53 PM71 °FOvercast.5 mph76%30.04 "Hg10 mi
8:53 PM72 °FOvercast.8 mph73%30.03 "Hg10 mi
7:53 PM73 °FOvercast.9 mph66%30.01 "Hg10 mi
6:53 PM76 °FOvercast.8 mph54%30.01 "Hg10 mi
5:53 PM76 °FScattered clouds.5 mph52%30.01 "Hg10 mi
4:53 PM79 °FPartly sunny.9 mph47%30.01 "Hg10 mi
3:53 PM77 °FOvercast.6 mph52%30.01 "Hg10 mi
2:53 PM75 °FMostly cloudy.7 mph55%30.03 "Hg10 mi
1:53 PM74 °FOvercast.7 mph56%30.05 "Hg10 mi
12:53 PM74 °FOvercast.7 mph56%30.05 "Hg10 mi
11:53 AM72 °FOvercast.N/A57%30.06 "Hg10 mi
11:01 AM71 °FOvercast.6 mph59%30.06 "Hg10 mi
Weather by CustomWeather, © 2014

See weather overview